User: anonymous   Login
Location: Pensacola
(30.4142°N, 87.2155°W)
Time: 04:43:50
(UTC-05:00)
Language:

AO-109 - Orbit

View from above orbital plane
View from above orbital plane
View from above satellite
View from above satellite

Ground track
Ground track

The orbit data is extracted from the following two-line orbital elements,

1 47311U 21002C   23155.37682836  .00021867  00000-0  57837-3 0  9997
2 47311  60.6804 107.7631 0014200 169.7126 190.4262 15.38335735132313
Epoch (UTC): 04 June 2023 09:02:37
Eccentricity: 0.0014200
inclination: 60.6804°
perigee height: 441 km
apogee height: 461 km
right ascension of ascending node: 107.7631°
argument of perigee: 169.7126°
revolutions per day: 15.38335735
mean anomaly at epoch: 190.4262°
orbit number at epoch: 13231

The dashed part of the orbit path shows where the satellite is in the earth's shadow,  

DLR